MMS 4

Last updated on June 2, 2021, 12:51 a.m. UTC

1 40485U 15011D   21150.80548125 -.00000488  00000-0  00000+0 0  9991
2 40485  33.4521 117.0984 8440820  32.5680 156.1830  0.28465260 12180
UTC
Height (km)
Latitude
Longitude
Inclination
Orbital Period
UTC large
Height (km)
Speed (km/s)
/
Latitude / Longitude
Inclination (degrees)
Orbital Period (minutes)
Azimuth
Elevation
Range (km)
Doppler Factor
iOS Compass Heading
iOS Angle

Next 30 passes for location: Hong Kong

Rise time Rise Azimuth (degrees) Set time Set Azimuth (degrees) Duration Max altitude (degrees)

No matching passes for this satellites